Flag for Canada Weather past 2 weeks in Lloydminster, Alberta, Canada

Now
41 °F

Passing clouds.


Feels Like: 36 °F
Forecast: 34 / 47 °F
Wind: 7 mph from Southwest

Location: Lloydminister

Current Time: Mar 29, 2015 at 11:07:41 PM

Latest Report: Mar 29, 2015 at 10:00 PM


Visibility: 15 mi

Pressure: 29.79 "Hg

Humidity: 76%

Dew point: 34 °F

Location of LloydminsterLocation

Historic Weather in Lloydminster — Graph

°F

Lloydminster temperature yesterday

Maximum temperature yesterday: 48 °F (at 4:00 PM)
Minimum temperature yesterday: 36 °F (at 12:00 AM)
Average temperature yesterday: 39 °F

Past Weeks' High & Low Weather Summary

 TemperatureHumidityPressure
High52 °F (Mar 29, 2:00 PM)100% (Mar 17, 8:00 AM)30.54 "Hg (Mar 17, 8:00 AM)
Low14 °F (Mar 26, 6:00 AM)35% (Mar 16, 4:00 PM)29.25 "Hg (Mar 14, 9:00 PM)
Average30 °F77%30.08 "Hg
* Reported Mar 14 9:00 PM — Mar 29 9:00 PM, Lloydminster, Weather by CustomWeather, © 2015

Note: Actual official high and low records may vary slightly from our data, if they occured in-between our weather recording intervals... More about our weather records

Advertising

Lloydminster weather history for previous 24 hours

 ConditionsComfort  
Time TempWeatherWind HumidityBarometerVisibility
9:00 PM
Sun, Mar 29
43 °FPassing clouds.9 mph71%29.80 "Hg15 mi
8:00 PM43 °FBroken clouds.8 mph71%29.81 "Hg15 mi
7:00 PM46 °FBroken clouds.9 mph66%29.81 "Hg15 mi
6:00 PM48 °FPartly sunny.6 mph66%29.83 "Hg15 mi
5:00 PM50 °FMostly cloudy.8 mph67%29.83 "Hg15 mi
4:00 PM52 °FBroken clouds.9 mph62%29.85 "Hg15 mi
3:00 PM52 °FMostly cloudy.8 mph50%29.87 "Hg15 mi
2:00 PM52 °FPartly sunny.10 mph58%29.88 "Hg15 mi
1:00 PM48 °FPartly sunny.13 mph62%29.91 "Hg15 mi
12:00 PM48 °FPartly sunny.10 mph58%29.93 "Hg15 mi
11:00 AM46 °FScattered clouds.12 mph62%29.95 "Hg15 mi
10:00 AM43 °FPassing clouds.9 mph71%29.96 "Hg15 mi
9:00 AM37 °FPartly sunny.9 mph81%29.98 "Hg15 mi
8:00 AM34 °FPassing clouds.9 mph81%29.99 "Hg15 mi
7:00 AM30 °FPassing clouds.8 mph93%30.01 "Hg15 mi
6:00 AM30 °FClear.8 mph93%30.01 "Hg9 mi
5:00 AM32 °FClear.12 mph87%30.01 "Hg9 mi
4:00 AM32 °FClear.13 mph93%30.01 "Hg9 mi
3:00 AM32 °FClear.13 mph93%30.02 "Hg9 mi
2:00 AM34 °FClear.13 mph93%30.01 "Hg9 mi
1:00 AM32 °FClear.8 mph93%30.00 "Hg9 mi
12:00 AM34 °FClear.10 mph87%29.98 "Hg9 mi
11:00 PM
Sat, Mar 28
36 °FClear.12 mph87%29.98 "Hg9 mi
Weather by CustomWeather, © 2015

See weather overviewHow to use our weather pages